Flag for Norway Weather past 2 weeks in Søgne, Norway

Now
58 °F

Cool.


Feels Like: 58 °F
Forecast: 54 / 57 °F
Wind: 6 mph from East

Location: Oksoy Fyr

Current Time: Sep 1, 2015 at 2:07:20 AM

Latest Report: Sep 1, 2015 at 1:00 AM


Visibility: N/A

Pressure: 29.89 "Hg

Humidity: 88%

Dew point: 55 °F

Location of SøgneLocation

Historic Weather in Søgne — Graph

°F

Søgne temperature yesterday

Maximum temperature yesterday: 64 °F (at 2:00 PM)
Minimum temperature yesterday: 54 °F (at 7:00 AM)
Average temperature yesterday: 59 °F

Past Weeks' High & Low Weather Summary

 TemperatureHumidityPressure
High69 °F (Aug 21, 3:00 PM)96% (Aug 26, 8:00 PM)30.32 "Hg (Aug 26, 8:00 PM)
Low54 °F (Aug 31, 7:00 AM)61% (Aug 23, 6:00 PM)29.55 "Hg (Aug 27, 7:00 AM)
Average63 °F82%30.02 "Hg
* Reported Midnight between Aug 16 and Aug 17 — Midnight between Aug 31 and Sep 1, Søgne, Weather by CustomWeather, © 2015

Note: Actual official high and low records may vary slightly from our data, if they occured in-between our weather recording intervals... More about our weather records

Advertising

Søgne weather history for previous 24 hours

 ConditionsComfort  
Time TempWeatherWind HumidityBarometerVisibility
12:00 AM
Tue, Sep 1
60 °FCool.5 mph89%29.91 "HgN/A
10:00 PM
Mon, Aug 31
60 °FCool.5 mph86%29.93 "HgN/A
9:00 PM61 °FCool.5 mph84%29.94 "HgN/A
8:00 PM62 °FCool.3 mph82%29.95 "HgN/A
7:00 PM62 °FCool.5 mph79%29.96 "HgN/A
6:00 PM62 °FMild.3 mph74%29.98 "HgN/A
5:00 PM63 °FMild.3 mph71%29.98 "HgN/A
4:00 PM63 °FMild.5 mph72%30.00 "HgN/A
3:00 PM64 °FMild.5 mph69%30.02 "HgN/A
2:00 PM64 °FMild.5 mph71%30.03 "HgN/A
1:00 PM62 °FMild.5 mph75%30.03 "HgN/A
12:00 PM60 °FCool.2 mph78%30.04 "HgN/A
11:00 AM58 °FCool.5 mph86%30.04 "HgN/A
10:00 AM56 °FCool.5 mph90%30.04 "HgN/A
9:00 AM55 °FCool.6 mph91%30.05 "HgN/A
8:00 AM54 °FCool.6 mph93%30.06 "HgN/A
7:00 AM54 °FCool.3 mph94%30.06 "HgN/A
6:00 AM55 °FCool.5 mph93%30.07 "HgN/A
5:00 AM56 °FCool.3 mph93%30.07 "HgN/A
4:00 AM57 °FCool.2 mph92%30.08 "HgN/A
3:00 AM57 °FCool.2 mph91%30.08 "HgN/A
2:00 AM58 °FCool.2 mph91%30.09 "HgN/A
Weather by CustomWeather, © 2015

See weather overviewHow to use our weather pages